Weather History for KENV - November, 2012

Change the Weather History Date:

Monday, November 12, 2012

  Actual Average Record
Temperature  
Mean Temperature 27 °F -  
Max Temperature 35 °F 48 °F 69 °F (1973)
Min Temperature 19 °F 32 °F 19 °F (2000)
Degree Days  
Heating Degree Days 38    
Moisture  
Dew Point 17 °F    
Average Humidity 65    
Maximum Humidity 80    
Minimum Humidity 44    
Precipitation  
Precipitation 0.00 in - - ()
Sea Level Pressure  
Sea Level Pressure 30.43 in    
Wind  
Wind Speed 6 mph (ENE)    
Max Wind Speed 10 mph    
Max Gust Speed -    
Visibility 10 miles    
Events      
Averages and records for this station are not official NWS values.
T = Trace of Precipitation, MM = Missing Value Source: NWS Daily Summary

Daily Weather History Graph

Daily Weather History Graph

Search for Another Location

Airport or City:

Trip Planner

Search our weather history database for the weather conditions in past years. The results will help you decide how hot, cold, wet, or windy it might be!

Date:

Astronomy

Nov. 12, 2012 Rise Set
Actual Time 7:20 AM MST 5:20 PM MST
Civil Twilight 6:50 AM MST 5:49 PM MST
Nautical Twilight 6:17 AM MST 6:22 PM MST
Astronomical Twilight 5:45 AM MST 6:54 PM MST
Moon 5:50 AM MST (11/12) 4:28 PM MST (11/12)
Length of Visible Light 10h 58m
Length of Day
10h 00m
Waning Crescent, 2% of the Moon is Illuminated
Nov 12
Waning Crescent
Nov 13
New
Nov 20
First Quarter
Nov 28
Full
Dec 6
Last Quarter

Hourly Weather History & Observations

Time (MST) Temp. Windchill Dew Point Humidity Pressure Visibility Wind Dir Wind Speed Gust Speed Precip Events Conditions
12:15 AM 26.6 °F 16.8 °F 17.6 °F 69% 30.42 in 10.0 mi NE 10.4 mph - N/A   Clear
12:35 AM 24.8 °F 16.1 °F 15.8 °F 69% 30.43 in 10.0 mi ENE 8.1 mph - N/A   Clear
12:55 AM 26.6 °F 17.5 °F 17.6 °F 69% 30.42 in 10.0 mi NE 9.2 mph - N/A   Clear
1:15 AM 24.8 °F 16.9 °F 15.8 °F 69% 30.42 in 10.0 mi NNE 6.9 mph - N/A   Clear
1:35 AM 26.6 °F 22.6 °F 15.8 °F 64% 30.43 in 10.0 mi NNW 3.5 mph - N/A   Clear
1:55 AM 24.8 °F 17.9 °F 15.8 °F 69% 30.43 in 10.0 mi NE 5.8 mph - N/A   Clear
2:15 AM 24.8 °F 15.3 °F 15.8 °F 69% 30.43 in 10.0 mi NE 9.2 mph - N/A   Clear
2:35 AM 23.0 °F 15.8 °F 15.8 °F 74% 30.43 in 10.0 mi NE 5.8 mph - N/A   Clear
3:15 AM 24.8 °F 17.9 °F 15.8 °F 69% 30.43 in 10.0 mi NNE 5.8 mph - N/A   Clear
3:35 AM 24.8 °F 17.9 °F 15.8 °F 69% 30.43 in 10.0 mi NNE 5.8 mph - N/A   Clear
3:55 AM 24.8 °F 19.1 °F 15.8 °F 69% 30.43 in 10.0 mi WNW 4.6 mph - N/A   Clear
4:15 AM 23.0 °F - 15.8 °F 74% 30.43 in 10.0 mi Calm Calm - N/A   Clear
4:35 AM 24.8 °F 20.5 °F 15.8 °F 69% 30.43 in 10.0 mi North 3.5 mph - N/A   Clear
4:55 AM 23.0 °F 18.4 °F 14.0 °F 68% 30.43 in 10.0 mi NNE 3.5 mph - N/A   Clear
5:15 AM 23.0 °F - 15.8 °F 74% 30.43 in 10.0 mi Calm Calm - N/A   Clear
5:35 AM 23.0 °F - 15.8 °F 74% 30.43 in 10.0 mi Calm Calm - N/A   Clear
5:55 AM 21.2 °F 16.4 °F 15.8 °F 80% 30.44 in 10.0 mi West 3.5 mph - N/A   Clear
6:15 AM 19.4 °F - 12.2 °F 74% 30.44 in 10.0 mi Calm Calm - N/A   Clear
7:15 AM 21.2 °F 16.4 °F 14.0 °F 74% 30.44 in 10.0 mi NE 3.5 mph - N/A   Clear
7:35 AM 21.2 °F 16.4 °F 15.8 °F 80% 30.45 in 10.0 mi NNE 3.5 mph - N/A   Clear
7:55 AM 21.2 °F - 15.8 °F 80% 30.45 in 10.0 mi Calm Calm - N/A   Clear
8:15 AM 21.2 °F - 15.8 °F 80% 30.46 in 10.0 mi Calm Calm - N/A   Clear
8:35 AM 24.8 °F - 15.8 °F 69% 30.46 in 10.0 mi Calm Calm - N/A   Clear
8:55 AM 26.6 °F 22.6 °F 17.6 °F 69% 30.46 in 10.0 mi NE 3.5 mph - N/A   Clear
9:15 AM 26.6 °F 20.0 °F 17.6 °F 69% 30.46 in 10.0 mi ENE 5.8 mph - N/A   Clear
9:35 AM 26.6 °F 20.0 °F 17.6 °F 69% 30.45 in 10.0 mi ENE 5.8 mph - N/A   Clear
9:55 AM 28.4 °F 21.2 °F 17.6 °F 64% 30.46 in 10.0 mi ENE 6.9 mph - N/A   Clear
10:15 AM 28.4 °F 20.4 °F 17.6 °F 64% 30.46 in 10.0 mi ENE 8.1 mph - N/A   Clear
10:35 AM 28.4 °F 21.2 °F 17.6 °F 64% 30.46 in 10.0 mi ENE 6.9 mph - N/A   Clear
10:55 AM 30.2 °F 22.6 °F 19.4 °F 64% 30.46 in 10.0 mi ENE 8.1 mph - N/A   Clear
11:15 AM 30.2 °F 22.6 °F 19.4 °F 64% 30.44 in 10.0 mi ENE 8.1 mph - N/A   Clear
11:35 AM 32.0 °F 24.8 °F 19.4 °F 60% 30.44 in 10.0 mi ENE 8.1 mph - N/A   Clear
11:55 AM 33.8 °F 27.0 °F 17.6 °F 52% 30.43 in 10.0 mi East 8.1 mph - N/A   Clear
12:15 PM 33.8 °F 27.0 °F 19.4 °F 56% 30.43 in 10.0 mi East 8.1 mph - N/A   Clear
12:35 PM 33.8 °F 26.4 °F 19.4 °F 56% 30.41 in 10.0 mi East 9.2 mph - N/A   Clear
12:55 PM 35.6 °F 29.2 °F 17.6 °F 48% 30.40 in 10.0 mi East 8.1 mph - N/A   Clear
1:15 PM 35.6 °F 29.9 °F 17.6 °F 48% 30.40 in 10.0 mi East 6.9 mph - N/A   Clear
1:35 PM 35.6 °F 30.7 °F 17.6 °F 48% 30.40 in 10.0 mi East 5.8 mph - N/A   Partly Cloudy
1:55 PM 35.6 °F 31.7 °F 15.8 °F 44% 30.39 in 10.0 mi ESE 4.6 mph - N/A   Clear
2:15 PM 35.6 °F 30.7 °F 15.8 °F 44% 30.39 in 10.0 mi ESE 5.8 mph - N/A   Partly Cloudy
2:35 PM 35.6 °F 31.7 °F 15.8 °F 44% 30.39 in 10.0 mi SE 4.6 mph - N/A   Partly Cloudy